Probability
6 10 32 35 35 32 45 45 39 42 32 42 45 42 45 39 39 52 48 45 48 52 55 48 45 52 55 58 52 58 48 48 52 52 55 48 42 39 45 32 48 55 45
6 10 42 45 45 32 42 42 39 32 32 35 39 35 32 32 32 39 39 39 42 42 42 39 39 42 45 55 52 48 42 48 42 45 39 45 39 32 39 32 48 52 52
6 19 32 42 42 29 35 42 39 35 35 35 32 35 32 35 29 29 29 35 32 26 42 39 42 35 39 45 55 55 45 42 39 42 39 42 39 32 39 42 52 48 45
10 13 13 35 35 29 39 39 35 32 32 32 26 26 26 32 32 29 32 32 29 29 35 42 39 32 35 45 45 52 45 42 35 35 29 35 32 39 42 45 48 35 48
6 13 23 32 26 26 32 29 35 26 26 23 19 19 23 32 29 32 23 26 26 29 26 35 39 35 42 48 52 42 39 32 26 29 23 42 48 42 39 39 35 29 35
10 13 23 32 23 23 29 29 29 29 23 19 19 16 19 19 19 16 23 23 23 29 29 32 42 42 32 39 42 35 42 32 19 32 29 32 42 42 35 35 26 23 23
10 13 16 32 26 23 23 29 26 26 32 23 13 13 19 16 19 19 23 23 26 29 32 29 32 39 32 39 32 26 16 19 16 23 32 42 39 42 35 26 26 26 26
16 19 16 32 29 26 19 16 16 23 29 23 13 13 16 13 10 16 26 32 29 26 26 32 35 29 29 29 29 16 26 10 6 10 23 35 32 42 35 29 26 23 26
19 19 19 10 19 29 26 19 19 29 23 19 16 16 10 10 16 19 23 26 32 26 26 32 29 23 23 29 26 19 16 23 13 6 3 26 35 39 32 35 29 26 26
19 19 19 16 13 19 23 29 19 16 16 13 19 23 16 16 16 19 13 23 26 29 35 32 26 26 26 26 19 19 10 6 10 6 6 13 16 26 26 29 16 19 16
16 16 16 16 16 6 6 10 19 16 16 10 13 10 10 6 6 10 6 23 29 23 23 29 19 19 26 19 6 3 6 6 6 6 6 10 16 16 13 13 13 16 16
13 13 13 16 16 10 6 13 16 3 16 10 10 6 6 6 6 6 3 13 19 23 23 19 13 6 6 3 0 3 3 6 3 6 3 6 10 16 10 10 6 13 16
10 13 16 13 16 19 16 16 13 10 13 10 6 3 6 3 3 6 10 10 13 10 10 6 6 3 3 6 6 0 0 3 10 6 6 3 10 10 13 13 16 19 16
10 13 16 13 19 13 13 10 10 16 13 10 10 3 3 3 0 3 6 6 10 10 6 6 10 3 0 0 0 0 0 3 3 3 10 6 3 3 10 10 10 16 13
13 13 10 10 16 13 16 16 13 13 6 10 10 0 0 0 0 0 3 6 3 10 10 10 6 0 0 0 0 0 0 0 0 0 6 6 3 3 3 6 10 16 13
16 16 16 10 10 13 13 16 13 10 16 10 6 0 0 0 0 0 0 0 6 6 6 6 0 3 6 3 0 0 0 0 0 0 0 10 3 6 3 6 19 16 13
13 13 16 13 10 13 6 10 6 10 6 10 10 3 0 0 0 0 0 3 3 6 3 6 0 0 0 0 0 3 3 3 3 3 0 0 3 3 6 3 3 3 10
10 10 6 10 10 13 6 10 10 13 6 3 6 6 0 0 0 0 3 3 3 6 10 3 3 3 0 0 3 3 3 3 3 3 3 0 3 0 3 3 3 0 0
13 10 10 3 6 6 10 10 10 10 16 3 6 6 3 0 0 0 3 3 6 10 6 0 6 0 3 3 3 0 3 0 3 3 3 0 0 3 3 0 0 0 0
16 13 13 6 6 10 10 6 6 10 10 10 6 6 6 3 3 3 3 3 0 3 3 6 0 0 0 0 0 0 0 0 0 3 3 3 0 0 0 0 0 0 0
19 19 16 6 3 10 10 10 10 10 10 10 10 6 6 6 0 3 3 0 3 3 0 3 6 3 3 0 0 0 0 0 0 0 3 3 0 0 0 0 0 0 0
19 19 13 6 3 3 6 6 6 6 10 10 10 6 10 3 3 3 0 3 3 10 0 3 10 6 0 0 0 0 0 0 0 0 0 0 0 3 0 0 0 0 0
13 19 13 10 10 10 6 6 3 3 3 10 10 10 10 6 6 0 0 0 0 3 6 6 10 6 0 0 0 0 0 0 0 0 0 0 0 0 0 0 0 0 0
6 13 13 10 10 6 6 6 3 6 10 10 13 10 10 10 6 0 0 0 0 3 3 3 3 6 6 3 3 0 0 0 0 0 0 0 0 0 0 0 0 0 0
6 6 6 10 13 13 10 13 16 10 10 6 3 6 10 13 6 3 3 0 3 3 0 0 0 3 3 6 10 6 0 0 0 0 0 0 0 0 0 0 0 0 0
3 6 6 3 10 13 13 10 16 13 16 10 13 6 6 10 6 3 3 0 0 3 3 3 6 6 6 3 6 6 0 0 0 0 0 0 0 0 0 0 0 0 0
Height
5888 5888 5887 5887 5887 5887 5886 5886 5886 5885 5885 5885 5885 5885 5885 5885 5884 5884 5884 5884 5884 5884 5884 5884 5884 5884 5884 5884 5884 5884 5884 5884 5884 5884 5884 5884 5884 5884 5884 5884 5884 5884 5884
5887 5887 5887 5886 5886 5886 5885 5885 5884 5884 5884 5884 5884 5883 5883 5883 5883 5883 5883 5883 5883 5883 5883 5883 5883 5883 5883 5883 5883 5883 5883 5883 5883 5883 5883 5883 5883 5883 5883 5883 5883 5883 5883
5886 5886 5886 5885 5885 5884 5884 5883 5883 5883 5883 5882 5882 5882 5882 5882 5882 5882 5882 5882 5882 5882 5882 5882 5882 5882 5882 5882 5882 5882 5882 5882 5882 5882 5882 5882 5882 5882 5882 5882 5882 5882 5882
5885 5885 5884 5884 5884 5883 5882 5882 5881 5881 5881 5881 5881 5881 5881 5881 5881 5880 5881 5881 5881 5881 5881 5881 5881 5881 5881 5881 5881 5880 5880 5880 5880 5881 5880 5880 5880 5880 5880 5880 5880 5880 5880
5884 5883 5883 5882 5882 5881 5881 5880 5880 5880 5880 5880 5879 5879 5879 5879 5879 5879 5879 5879 5879 5879 5879 5879 5879 5879 5879 5879 5879 5879 5879 5879 5879 5879 5879 5879 5879 5879 5879 5879 5879 5879 5879
5882 5881 5881 5880 5880 5880 5879 5879 5878 5878 5878 5878 5878 5878 5878 5878 5877 5877 5877 5877 5877 5877 5878 5878 5878 5878 5878 5878 5877 5877 5877 5877 5877 5877 5877 5877 5877 5877 5877 5877 5877 5877 5877
5880 5880 5879 5879 5878 5878 5878 5877 5877 5876 5876 5876 5876 5876 5876 5876 5876 5875 5875 5875 5875 5875 5876 5876 5876 5876 5876 5876 5876 5875 5875 5875 5875 5875 5875 5875 5875 5875 5875 5875 5875 5875 5875
5878 5878 5877 5877 5877 5876 5876 5875 5875 5874 5874 5874 5874 5874 5874 5874 5874 5873 5873 5873 5873 5873 5873 5874 5874 5874 5874 5874 5874 5874 5874 5873 5873 5873 5873 5873 5873 5873 5873 5873 5873 5873 5873
5877 5876 5875 5875 5875 5874 5874 5873 5873 5873 5872 5872 5872 5872 5872 5872 5871 5871 5871 5871 5871 5871 5871 5871 5871 5871 5871 5871 5871 5871 5871 5871 5871 5871 5871 5871 5871 5871 5871 5871 5871 5870 5870
5875 5875 5874 5873 5873 5872 5872 5871 5871 5871 5871 5870 5870 5870 5870 5870 5869 5869 5869 5869 5869 5869 5869 5869 5869 5869 5869 5869 5870 5870 5869 5869 5869 5869 5869 5869 5869 5869 5869 5868 5868 5868 5868
5874 5873 5872 5872 5871 5870 5870 5869 5869 5869 5868 5868 5868 5868 5868 5868 5867 5867 5867 5867 5867 5867 5867 5867 5867 5867 5867 5867 5868 5868 5868 5867 5867 5867 5867 5867 5866 5866 5866 5866 5866 5866 5865
5872 5872 5871 5870 5869 5869 5868 5867 5867 5867 5866 5866 5866 5866 5866 5866 5865 5865 5865 5865 5865 5865 5865 5865 5865 5865 5865 5865 5866 5866 5865 5865 5865 5865 5864 5864 5864 5864 5864 5864 5863 5863 5863
5871 5870 5869 5868 5868 5867 5866 5865 5865 5865 5864 5864 5864 5864 5864 5864 5864 5863 5863 5863 5863 5863 5863 5863 5863 5863 5863 5863 5863 5863 5863 5863 5863 5863 5862 5862 5862 5862 5862 5862 5861 5861 5861
5869 5868 5868 5867 5866 5865 5864 5864 5863 5863 5862 5862 5862 5862 5862 5862 5862 5862 5861 5861 5861 5861 5861 5861 5861 5861 5861 5861 5862 5862 5862 5861 5861 5861 5861 5861 5860 5860 5860 5860 5859 5859 5858
5868 5867 5866 5866 5865 5864 5862 5862 5861 5861 5860 5860 5859 5860 5860 5860 5860 5859 5859 5859 5859 5859 5859 5859 5859 5859 5860 5860 5860 5860 5860 5860 5859 5859 5859 5859 5858 5858 5858 5857 5857 5857 5856
5866 5866 5865 5864 5863 5862 5861 5860 5859 5858 5858 5857 5857 5857 5857 5857 5857 5857 5857 5857 5857 5857 5857 5857 5857 5858 5858 5858 5858 5858 5858 5858 5858 5857 5857 5857 5857 5856 5856 5855 5855 5854 5854
5865 5864 5863 5862 5861 5860 5859 5857 5857 5856 5856 5856 5855 5855 5855 5855 5855 5855 5856 5856 5856 5855 5856 5856 5856 5856 5857 5857 5856 5856 5856 5856 5856 5856 5855 5855 5855 5854 5854 5854 5853 5852 5852
5863 5862 5861 5860 5859 5858 5857 5856 5855 5855 5854 5854 5853 5853 5853 5853 5853 5853 5854 5854 5854 5854 5854 5854 5855 5855 5855 5855 5855 5855 5855 5854 5854 5854 5854 5853 5853 5853 5852 5852 5851 5851 5850
5862 5861 5860 5858 5858 5857 5856 5855 5854 5853 5852 5852 5851 5851 5851 5851 5851 5852 5852 5852 5852 5852 5852 5852 5853 5853 5853 5853 5853 5853 5853 5853 5853 5852 5852 5852 5851 5851 5850 5850 5850 5849 5848
5860 5859 5858 5857 5856 5855 5854 5853 5852 5851 5850 5850 5850 5850 5849 5849 5850 5850 5850 5850 5851 5851 5851 5851 5851 5851 5851 5851 5851 5851 5851 5851 5851 5851 5850 5850 5850 5849 5849 5848 5848 5847 5847
5858 5857 5856 5855 5854 5853 5852 5851 5850 5849 5849 5848 5848 5848 5848 5848 5848 5848 5848 5849 5849 5849 5849 5849 5849 5849 5849 5849 5850 5850 5850 5850 5849 5849 5849 5849 5848 5848 5847 5847 5846 5846 5845
5856 5855 5854 5853 5852 5851 5850 5849 5848 5847 5847 5847 5846 5846 5846 5846 5847 5847 5847 5847 5847 5847 5847 5847 5847 5847 5847 5848 5848 5849 5849 5849 5848 5848 5848 5847 5847 5846 5846 5846 5845 5844 5844
5854 5853 5852 5851 5850 5849 5848 5847 5847 5846 5845 5845 5845 5845 5845 5845 5845 5845 5845 5845 5845 5846 5846 5846 5846 5846 5846 5846 5847 5847 5848 5847 5847 5847 5846 5846 5846 5845 5845 5844 5844 5844 5843
5852 5851 5850 5849 5848 5847 5846 5845 5845 5844 5844 5844 5843 5843 5843 5843 5844 5844 5844 5844 5844 5844 5844 5845 5845 5845 5845 5845 5845 5846 5846 5846 5846 5846 5846 5845 5845 5844 5844 5843 5843 5843 5842
5849 5848 5847 5846 5846 5845 5844 5843 5843 5843 5842 5842 5842 5842 5842 5842 5842 5842 5842 5842 5842 5842 5842 5843 5843 5843 5844 5844 5844 5844 5844 5844 5845 5845 5845 5844 5844 5844 5843 5843 5842 5842 5841
5846 5846 5845 5844 5843 5843 5842 5841 5841 5841 5840 5840 5840 5840 5840 5840 5840 5840 5840 5840 5840 5840 5841 5841 5841 5842 5842 5842 5842 5842 5843 5843 5843 5843 5843 5843 5843 5843 5842 5842 5841 5841 5840
Wind_Speed
2 2 3 3 3 2 3 3 4 4 4 4 4 3 4 4 4 4 4 4 4 4 5 5 5 6 6 6 6 6 6 7 7 6 7 7 6 6 6 6 5 6 6
4 4 3 4 4 3 4 4 5 5 5 5 5 5 4 5 5 5 4 4 4 4 5 5 5 5 7 7 7 7 7 7 7 7 7 7 7 7 7 6 6 7 7
5 5 5 5 5 5 5 5 5 5 6 6 6 6 6 6 6 6 5 5 5 5 5 6 6 6 7 7 7 8 8 8 8 8 8 8 8 8 8 7 8 8 8
5 5 5 5 6 6 6 6 6 6 7 6 6 6 6 7 7 7 7 7 7 6 7 6 6 7 8 8 8 8 8 8 8 8 8 8 9 9 9 9 9 9 9
5 5 6 6 7 7 7 7 7 8 7 7 7 7 6 7 8 8 8 8 8 8 7 7 7 7 8 8 8 8 8 9 9 9 9 9 9 10 10 10 10 10 10
6 7 7 7 8 8 8 8 8 8 8 8 8 7 7 7 8 9 9 9 9 9 9 8 8 8 9 9 8 8 8 9 9 10 10 10 10 10 11 11 11 12 11
6 7 7 7 7 7 8 8 8 8 8 9 8 8 8 8 9 9 10 10 10 10 10 10 10 10 10 9 9 9 9 9 9 10 10 10 11 11 11 11 12 12 12
7 7 7 8 8 8 8 8 8 8 8 9 9 8 8 9 9 9 10 11 10 10 11 11 11 10 10 10 10 10 10 10 9 9 10 10 11 11 12 12 12 12 13
7 7 7 8 8 8 8 8 9 9 9 9 9 9 9 9 9 9 10 11 10 11 11 11 10 10 10 9 9 9 9 9 9 9 10 10 10 11 12 12 12 12 13
7 7 8 8 8 8 9 9 9 9 9 9 9 10 9 9 8 9 9 9 9 10 10 10 10 11 10 10 9 9 9 9 9 10 10 10 10 11 11 12 12 12 13
8 7 8 8 8 8 9 9 10 9 9 9 10 10 9 9 9 9 9 9 10 10 10 10 11 11 11 11 10 10 9 9 9 10 10 10 11 11 11 12 12 12 12
8 8 8 8 7 8 8 9 9 9 10 10 10 10 9 9 9 9 9 9 10 10 10 10 11 11 11 11 10 10 9 9 10 10 10 11 10 11 11 11 11 12 12
9 8 8 7 7 7 7 8 9 9 10 10 10 10 10 10 9 9 9 10 10 10 10 10 11 11 11 11 10 10 10 10 10 10 10 11 11 11 10 11 11 12 13
8 8 8 7 7 7 7 8 8 9 9 10 10 9 9 9 9 9 9 10 10 10 10 10 10 10 10 10 9 10 10 10 9 9 10 10 10 9 10 10 11 12 12
8 7 8 7 7 8 7 7 8 9 9 9 9 9 9 9 9 9 9 9 9 10 10 9 9 9 9 9 10 10 9 10 9 9 9 9 9 9 9 10 10 10 10
8 7 8 7 8 8 8 7 8 8 8 8 8 8 9 9 9 9 9 9 9 9 9 9 9 8 9 9 9 10 10 10 10 9 9 9 9 9 9 9 9 9 9
8 8 8 8 8 8 8 8 8 8 8 8 8 8 8 8 8 8 9 9 9 9 9 10 9 9 9 9 9 9 9 9 9 9 9 9 9 9 8 8 8 8 9
8 8 8 9 9 9 9 8 9 9 9 8 8 8 8 8 8 8 9 9 9 8 8 9 9 9 9 9 9 8 8 8 8 9 9 9 9 9 8 8 7 7 7
8 8 9 9 9 10 10 9 9 8 9 8 8 8 8 8 7 8 8 8 8 8 8 8 9 9 9 9 9 8 8 7 7 8 8 8 8 9 9 8 7 7 7
8 8 8 8 9 9 9 9 9 9 8 8 7 7 7 7 7 7 7 7 8 8 8 8 8 9 9 9 8 8 8 8 7 7 8 8 9 9 8 7 7 7 7
9 8 8 8 8 8 8 9 9 9 8 8 7 7 6 6 7 7 7 7 8 7 8 8 8 9 8 8 8 8 8 8 7 7 7 8 8 8 7 7 7 7 7
9 9 9 9 9 9 9 8 8 8 7 7 7 7 7 7 7 6 6 7 7 8 7 7 7 7 7 7 7 7 7 6 6 7 6 6 6 6 6 6 6 6 6
9 9 9 9 9 9 9 8 8 7 7 7 7 8 7 7 7 7 7 8 8 8 8 7 6 6 6 6 6 6 6 6 6 6 6 5 5 4 5 5 5 5 5
10 10 10 10 9 9 9 8 8 7 7 6 6 7 8 8 9 9 9 8 8 9 8 7 6 6 6 6 7 7 7 7 7 6 6 5 4 4 4 4 4 4 4
11 11 11 10 10 9 9 8 8 8 7 7 7 7 8 8 8 8 9 8 8 8 8 7 7 7 7 7 7 7 7 7 7 6 5 5 5 5 5 5 4 4 4
12 11 11 11 10 10 9 8 8 8 8 8 8 8 8 8 8 8 8 8 8 9 9 8 7 7 6 6 7 7 6 7 7 6 5 5 5 5 5 5 5 5 5
Wind_Direction
255 252 237 240 249 252 265 260 255 257 256 241 242 238 234 227 227 234 233 236 237 238 241 238 238 242 246 246 247 251 253 252 250 250 246 244 247 245 247 252 255 257 256
258 261 262 259 262 264 268 262 263 256 254 243 240 246 246 240 237 236 240 242 244 244 246 245 244 246 248 251 251 252 252 253 248 250 249 249 249 248 251 253 256 257 260
265 266 269 272 275 274 271 269 266 257 256 249 245 246 248 245 239 239 245 248 249 252 251 249 250 250 251 252 255 256 254 251 250 254 252 254 255 255 255 258 262 265 264
269 269 269 274 276 274 271 268 266 261 256 252 250 250 250 247 247 252 255 255 255 256 254 249 253 256 256 255 254 254 254 254 255 257 254 254 255 256 258 261 262 265 266
268 270 273 273 272 273 269 269 268 264 256 254 253 252 253 253 252 254 254 255 255 256 251 249 254 259 258 259 257 255 257 256 255 256 258 258 257 256 260 263 261 263 264
274 274 273 273 273 274 273 270 270 264 256 256 258 255 258 258 256 253 253 254 255 253 252 251 254 258 256 256 255 256 261 262 259 258 259 260 260 259 260 263 263 264 263
283 277 276 277 274 272 270 268 267 262 260 257 260 262 262 262 260 255 254 254 258 256 253 252 253 256 257 254 253 256 258 262 263 263 261 257 257 257 259 264 263 262 262
285 281 282 283 276 271 269 268 263 258 260 258 260 264 265 264 262 258 258 257 257 255 254 252 251 253 256 256 256 260 261 261 264 266 263 259 257 258 260 263 262 262 261
290 286 285 285 278 273 272 270 263 261 260 259 262 268 267 263 261 258 257 258 257 256 254 253 252 253 256 257 260 261 260 261 264 265 264 261 260 259 258 261 263 263 262
298 290 287 285 281 277 274 270 264 264 262 263 265 268 265 263 262 259 258 259 259 257 255 255 257 260 258 260 263 267 266 265 265 264 264 263 262 260 260 261 263 263 265
301 291 287 283 280 279 274 271 267 267 265 268 269 267 264 262 261 261 260 257 256 257 255 255 259 263 263 265 265 265 264 264 265 263 263 263 263 262 260 262 264 264 266
303 297 290 286 283 281 278 272 269 270 270 270 269 265 262 261 261 263 261 256 256 256 255 256 258 263 262 262 261 260 259 262 263 264 262 261 261 262 261 262 264 265 267
303 299 295 289 287 284 278 271 269 273 273 272 269 264 262 260 260 262 261 256 256 258 258 257 259 263 262 259 257 256 257 262 264 265 262 263 264 265 265 264 265 265 267
304 300 293 289 287 288 284 278 272 273 276 275 269 261 259 259 259 258 258 255 256 260 260 259 263 262 260 256 253 255 258 261 263 263 262 263 263 264 267 269 268 268 267
308 299 291 290 289 289 284 282 277 276 277 273 266 261 259 258 258 257 253 253 255 256 257 259 261 260 258 254 253 255 257 258 263 260 261 261 263 267 269 271 272 273 271
304 300 291 291 294 292 284 278 277 280 281 276 267 263 259 255 255 252 250 251 252 254 255 259 261 258 256 258 259 259 257 259 260 260 262 262 262 266 270 271 271 271 274
302 297 291 290 296 298 295 288 280 278 278 274 268 262 258 254 251 249 250 251 253 252 255 258 260 256 258 260 260 259 257 256 257 258 261 262 264 266 266 270 272 271 273
301 298 294 294 297 297 295 292 291 282 275 271 266 262 257 255 253 247 246 248 250 252 255 257 258 257 256 258 256 255 256 257 257 257 262 265 262 264 267 269 273 274 274
302 301 297 295 295 298 294 292 292 287 278 270 266 264 258 254 249 246 250 250 248 250 251 256 256 258 257 254 250 249 250 255 257 257 261 265 263 263 268 270 271 274 274
300 301 299 298 296 299 299 293 287 286 278 271 266 262 256 251 248 248 250 248 248 252 253 253 254 256 255 251 248 246 247 252 255 257 261 262 260 262 264 265 269 272 273
297 297 296 295 296 298 297 295 291 285 277 271 263 258 253 253 249 248 246 247 250 253 254 255 259 257 252 250 247 246 246 250 253 253 256 256 257 255 254 261 267 266 267
297 294 294 291 291 295 294 293 289 284 274 267 258 254 254 254 249 246 247 249 253 254 254 258 259 255 248 243 242 241 243 249 255 255 252 251 251 252 252 265 268 263 266
294 292 292 290 289 291 291 290 289 284 275 267 262 256 255 252 249 247 252 253 253 252 252 253 254 248 246 243 242 245 246 253 256 258 260 253 250 252 261 264 267 264 266
291 290 291 288 287 288 290 288 285 283 277 273 267 261 257 253 249 249 253 255 252 247 249 252 247 243 248 248 247 249 255 256 256 258 259 254 248 254 261 266 269 268 278
288 289 288 285 282 281 283 284 279 274 270 271 273 268 264 258 255 253 249 251 251 248 245 245 245 245 246 246 249 251 256 255 251 254 253 250 247 250 258 265 274 278 287
284 286 286 282 279 277 278 278 273 268 267 267 269 269 268 263 257 253 247 246 252 250 245 243 241 245 246 249 249 250 250 247 246 247 249 251 250 256 262 267 275 282 288